Kezdőlap
METAR-TAF:

METAR-TAF

Repülőterek :

Boone Municipal Airport

Boone, Iowa, Amerikai Egyesült Államok

földrajzi szélesség: 42-03N, földrajzi hosszúság: 093-51W, magasság: 354 m

Jelenlegi meteorológiai megfigyelések

A jelentés 22 perccel ezelõtt készült, 18:35 UTC
Észak-északnyugati szél 12 kt
Hőmérséklet 9°C
Páratartalom 87%
Légköri nyomás 1018 hPa
Látótávolság: 16.1 km
Kevés felhő 1700 lábon
Szórványos felhőzet 2300 lábon
Szakadozott felhőzet 2800 lábon

METAR: KBNW 181835Z AUTO 33012KT 10SM FEW017 SCT023 BKN028 09/07 A3007 RMK AO2

Idő: 13:57 (18:57 UTC)


TAF: hiányzik

Meteorológiai megfigyelések és előrejelzések több, mint 4000 repülőtéren (METAR és TAF jelentéseket).

A térképen piros és sárga pontok jelzik az elérhető meteorológiai állomásokat.

Mozgassa az egeret a pont fölött, hogy megjelenjen az állomás neve.

Azután kattintson az időjárási megfigyelések és előrejelzések megtekintéséhez.

A térkép megváltoztatása: kattintson a fekete keresztel jelölt zöld gombra ráközelítéshez, a vonallal jelölt zöld gombra távolításhoz, vagy a zöld nyilakra a szomszédos térképek eléréséhez.


METAR-TAF: